Powrót do katalogu

COSMOS 2067

AktywnyMilitariaLEO
NORAD 20552·PAYLOAD·🇷🇺 Russia

Wystrzelony Apr 6, 1990 z Plesetsk Cosmodrome

Loading…

Następne Przeloty (najbliższe 24 godziny)

TLE

ŚwieżeSource: Space-Track

Epoka: Sep 14, 2026, 10:35 UTC

1 20552U 90029D   26257.44125185 -.00000024  00000-0 -47461-4 0  9990
2 20552  73.9782 249.9545 0039689  22.9215  50.0533 12.57939297673428

Śledź COSMOS 2067 w czasie rzeczywistym z AllMySat

Download on the App Store